Location: Passau
(48.5830°N, 13.4830°E)
Time: 05:07:02
(UTC+02:00)

Vanguard 1 - Pass Details

Date: 02 August 2021
Orbit: 652 x 3831 km, 34.3° (Epoch: 16 September)

Event Time Altitude Azimuth Distance (km) Brightness Sun altitude
Rises 15:31:43 0° 256° (WSW) 3,752 13.7 48.1°
Reaches altitude 10° 15:34:31 10° 241° (WSW) 3,111 13.6 47.7°
Maximum altitude 15:40:31 24° 191° (S) 2,882 13.3 46.9°
Drops below altitude 10° 15:49:32 10° 145° (SE) 4,863 13.7 45.6°
Sets 15:55:29 0° 135° (SE) 6,483 14.1 44.8°
